| time (UTC) | temp F | wind direction | speed knots | gust knots | rain 1hr in | rain 24hr in | rain mn in | humidity % | barometer mb |
| 20260505091527 | 41 | 194 | 4.3 | 8.7 | 0.00 | 0.01 | 0.00 | 92 | 1010.4 |
| 20260505090029 | 41 | 203 | 3.5 | 7.0 | 0.00 | 0.01 | 0.00 | 92 | 1010.1 |
| 20260505084527 | 41 | 195 | 4.3 | 8.7 | 0.00 | 0.01 | 0.00 | 92 | 1010.0 |
| 20260505083018 | 41 | 202 | 2.6 | 7.0 | 0.00 | 0.01 | 0.00 | 92 | 1009.7 |
| 20260505081518 | 40 | 194 | 2.6 | 7.0 | 0.00 | 0.01 | 0.00 | 92 | 1009.6 |
| 20260505080024 | 40 | 187 | 1.7 | 5.2 | 0.00 | 0.01 | 0.00 | 92 | 1009.3 |
| 20260505074512 | 41 | 175 | 2.6 | 5.2 | 0.00 | 0.02 | 0.00 | 91 | 1009.1 |
| 20260505073010 | 41 | 191 | 2.6 | 7.0 | 0.00 | 0.02 | 0.00 | 91 | 1008.9 |
| 20260505071508 | 41 | 201 | 2.6 | 7.8 | 0.00 | 0.02 | 0.00 | 91 | 1008.8 |
| 20260505070005 | 41 | 206 | 3.5 | 7.0 | 0.00 | 0.02 | 0.00 | 90 | 1008.5 |
| 20260505064506 | 42 | 194 | 3.5 | 7.8 | 0.00 | 0.03 | 0.00 | 90 | 1008.1 |
| 20260505063059 | 42 | 178 | 3.5 | 9.6 | 0.00 | 0.03 | 0.00 | 90 | 1007.8 |
| 20260505061614 | 42 | 195 | 5.2 | 8.7 | 0.00 | 0.03 | 0.00 | 89 | 1007.6 |
| 20260505060057 | 42 | 182 | 2.6 | 5.2 | 0.00 | 0.03 | 0.00 | 88 | 1007.3 |
| 20260505054555 | 43 | 203 | 2.6 | 7.0 | 0.00 | 0.03 | 0.00 | 88 | 1007.1 |
| 20260505053046 | 43 | 201 | 3.5 | 7.8 | 0.00 | 0.03 | 0.00 | 87 | 1006.8 |
| 20260505051543 | 43 | 184 | 4.3 | 11.3 | 0.00 | 0.03 | 0.00 | 86 | 1006.5 |
| 20260505041532 | 44 | 195 | 2.6 | 7.0 | 0.00 | 0.03 | 0.00 | 82 | 1005.7 |
| 20260505040038 | 45 | 205 | 2.6 | 6.1 | 0.00 | 0.03 | 0.00 | 80 | 1005.7 |
| 20260505034536 | 46 | 203 | 3.5 | 8.7 | 0.00 | 0.03 | 0.00 | 79 | 1005.6 |
| 20260505033022 | 47 | 198 | 3.5 | 7.8 | 0.00 | 0.03 | 0.00 | 78 | 1005.3 |
| 20260505031519 | 47 | 209 | 1.7 | 7.0 | 0.00 | 0.03 | 0.00 | 77 | 1005.0 |
| 20260505030018 | 47 | 230 | 1.7 | 8.7 | 0.00 | 0.03 | 0.00 | 76 | 1004.8 |
| 20260505024516 | 47 | 215 | 1.7 | 4.3 | 0.00 | 0.03 | 0.03 | 75 | 1004.6 |
| 20260505023014 | 47 | 214 | 3.5 | 8.7 | 0.00 | 0.03 | 0.03 | 74 | 1004.4 |
| 20260505021513 | 48 | 201 | 4.3 | 7.8 | 0.00 | 0.03 | 0.03 | 72 | 1004.0 |
| 20260505020013 | 49 | 201 | 4.3 | 9.6 | 0.00 | 0.03 | 0.03 | 70 | 1003.9 |
| 20260505014512 | 50 | 210 | 4.3 | 13.9 | 0.00 | 0.04 | 0.03 | 70 | 1004.0 |
| 20260505013010 | 50 | 195 | 3.5 | 7.0 | 0.00 | 0.04 | 0.03 | 69 | 1003.9 |
| 20260505011511 | 51 | 226 | 5.2 | 13.9 | 0.00 | 0.04 | 0.03 | 66 | 1003.9 |
| 20260505010009 | 51 | 221 | 7.0 | 15.6 | 0.00 | 0.04 | 0.03 | 64 | 1004.0 |
| 20260505004514 | 50 | 203 | 7.0 | 13.9 | 0.00 | 0.08 | 0.03 | 64 | 1003.9 |
| 20260505003007 | 49 | 178 | 6.1 | 11.3 | 0.00 | 0.08 | 0.03 | 66 | 1003.7 |
| 20260505001506 | 48 | 207 | 4.3 | 10.4 | 0.00 | 0.08 | 0.03 | 67 | 1003.6 |
| 20260505000004 | 50 | 207 | 2.6 | 8.7 | 0.00 | 0.08 | 0.03 | 62 | 1003.3 |
| 20260504234613 | 50 | 173 | 3.5 | 8.7 | 0.00 | 0.37 | 0.03 | 62 | 1002.9 |
| 20260504234501 | 50 | 193 | 3.5 | 8.7 | 0.00 | 0.37 | 0.03 | 62 | 1002.8 |
| 20260504233104 | 50 | 169 | 3.5 | 7.8 | 0.00 | 0.37 | 0.03 | 61 | 1002.7 |
| 20260504231558 | 51 | 171 | 2.6 | 8.7 | 0.00 | 0.37 | 0.03 | 61 | 1002.5 |
| 20260504230059 | 52 | 205 | 6.1 | 13.9 | 0.00 | 0.37 | 0.03 | 60 | 1002.5 |
| 20260504224556 | 53 | 216 | 6.1 | 12.2 | 0.00 | 0.50 | 0.03 | 57 | 1002.4 |
| 20260504223056 | 53 | 247 | 7.0 | 15.6 | 0.00 | 0.50 | 0.03 | 55 | 1002.2 |
| 20260504221553 | 54 | 188 | 5.2 | 12.2 | 0.00 | 0.50 | 0.03 | 54 | 1001.9 |
| 20260504220058 | 54 | 223 | 6.1 | 18.2 | 0.00 | 0.50 | 0.03 | 52 | 1001.9 |
| 20260504214550 | 54 | 281 | 7.8 | 20.9 | 0.00 | 0.66 | 0.03 | 51 | 1001.6 |
| 20260504213107 | 54 | 254 | 9.6 | 23.5 | 0.00 | 0.66 | 0.03 | 51 | 1001.5 |
| 20260504211548 | 54 | 250 | 12.2 | 24.3 | 0.00 | 0.66 | 0.03 | 51 | 1001.2 |
| 20260504210046 | 54 | 209 | 10.4 | 19.1 | 0.00 | 0.66 | 0.03 | 52 | 1000.8 |
| 20260504204545 | 54 | 200 | 8.7 | 28.7 | 0.00 | 0.69 | 0.03 | 53 | 1000.6 |
| 20260504203041 | 54 | 200 | 9.6 | 30.4 | 0.00 | 0.69 | 0.03 | 57 | 1000.5 |
| 20260504201541 | 53 | 269 | 10.4 | 26.9 | 0.00 | 0.69 | 0.03 | 62 | 1000.1 |
| 20260504200039 | 53 | 267 | 10.4 | 27.8 | 0.00 | 0.69 | 0.03 | 63 | 999.7 |
| 20260504194534 | 54 | 269 | 7.8 | 24.3 | 0.00 | 0.69 | 0.03 | 67 | 999.3 |
| 20260504193041 | 52 | 223 | 11.3 | 25.2 | 0.00 | 0.69 | 0.03 | 67 | 999.1 |
| 20260504191532 | 52 | 212 | 11.3 | 25.2 | 0.00 | 0.69 | 0.03 | 71 | 999.1 |
| 20260504190030 | 52 | 192 | 8.7 | 27.8 | 0.00 | 0.69 | 0.03 | 73 | 998.5 |
| 20260504184522 | 51 | 257 | 11.3 | 25.2 | 0.00 | 0.71 | 0.03 | 74 | 998.5 |
| 20260504183018 | 49 | 274 | 10.4 | 20.9 | 0.00 | 0.71 | 0.03 | 79 | 998.5 |
| 20260504181518 | 48 | 230 | 8.7 | 20.0 | 0.00 | 0.71 | 0.03 | 79 | 998.3 |
| 20260504180013 | 47 | 250 | 10.4 | 20.9 | 0.00 | 0.71 | 0.03 | 80 | 998.2 |
| 20260504174513 | 47 | 248 | 10.4 | 23.5 | 0.00 | 0.71 | 0.03 | 82 | 998.0 |
| 20260504173007 | 46 | 263 | 11.3 | 21.7 | 0.00 | 0.71 | 0.03 | 83 | 997.5 |
| 20260504171507 | 45 | 210 | 13.0 | 26.1 | 0.00 | 0.71 | 0.03 | 85 | 997.1 |
| 20260504100106 | 39 | 258 | 11.3 | 20.0 | 0.00 | 0.71 | 0.02 | 96 | 980.6 |